Time,TemperatureF,DewpointF,PressureIn,WindDirection,WindDirectionDegrees,WindSpeedMPH,WindSpeedGustMPH,Humidity,HourlyPrecipIn,Conditions,Clouds,dailyrainin,SoftwareType,DateUTC
2013-04-30 00:02:00,51.0,51.0,30.06,ENE,72,9.0,12.0,100,0.00,,,0.11,,2013-04-30 04:02:00,
2013-04-30 00:12:00,51.0,51.0,30.06,ENE,72,9.0,12.0,100,0.00,,,0.11,,2013-04-30 04:12:00,
2013-04-30 00:22:00,51.0,51.0,30.06,ENE,78,4.0,12.0,100,0.00,,,0.09,,2013-04-30 04:22:00,
2013-04-30 00:32:00,51.0,51.0,30.08,East,87,3.0,7.0,100,0.00,,,0.09,,2013-04-30 04:32:00,
2013-04-30 00:42:00,51.0,51.0,30.08,East,87,3.0,7.0,100,0.00,,,0.09,,2013-04-30 04:42:00,
2013-04-30 00:52:00,50.0,50.0,30.07,East,92,4.0,7.0,100,0.00,,,0.09,,2013-04-30 04:52:00,
2013-04-30 01:02:00,50.0,50.0,30.07,East,88,6.0,7.0,100,0.00,,,0.09,,2013-04-30 05:02:00,
2013-04-30 01:12:00,50.0,50.0,30.07,East,88,6.0,7.0,100,0.00,,,0.09,,2013-04-30 05:12:00,
2013-04-30 01:22:00,50.0,50.0,30.07,East,88,6.0,7.0,100,0.00,,,0.09,,2013-04-30 05:22:00,
2013-04-30 01:31:00,50.0,50.0,30.07,East,88,6.0,7.0,100,0.00,,,0.09,,2013-04-30 05:31:00,
2013-04-30 01:42:00,50.0,50.0,30.07,East,88,6.0,7.0,100,0.00,,,0.09,,2013-04-30 05:42:00,
2013-04-30 01:51:00,50.0,50.0,30.07,East,80,5.0,10.0,100,0.00,,,0.09,,2013-04-30 05:51:00,
2013-04-30 02:02:00,50.0,50.0,30.07,East,80,5.0,10.0,100,0.00,,,0.09,,2013-04-30 06:02:00,
2013-04-30 02:12:00,50.0,50.0,30.07,East,80,5.0,10.0,100,0.00,,,0.09,,2013-04-30 06:12:00,
2013-04-30 02:21:00,50.0,50.0,30.08,East,90,2.0,10.0,100,0.00,,,0.09,,2013-04-30 06:21:00,
2013-04-30 02:32:00,49.0,49.0,30.07,East,82,6.0,17.0,100,0.00,,,0.09,,2013-04-30 06:32:00,
2013-04-30 02:42:00,49.0,49.0,30.07,East,82,6.0,17.0,100,0.00,,,0.09,,2013-04-30 06:42:00,
2013-04-30 02:52:00,49.0,49.0,30.07,East,82,6.0,17.0,100,0.00,,,0.09,,2013-04-30 06:52:00,
2013-04-30 03:02:00,48.0,48.0,30.07,East,96,4.0,14.0,100,0.00,,,0.09,,2013-04-30 07:02:00,
2013-04-30 03:11:00,48.0,48.0,30.07,East,96,4.0,14.0,100,0.00,,,0.09,,2013-04-30 07:11:00,
2013-04-30 03:21:00,48.0,48.0,30.07,ESE,103,5.0,16.0,100,0.00,,,0.09,,2013-04-30 07:21:00,
2013-04-30 03:32:00,48.0,48.0,30.07,ESE,114,4.0,12.0,100,0.00,,,0.09,,2013-04-30 07:32:00,
2013-04-30 03:42:00,48.0,48.0,30.07,ESE,114,4.0,12.0,100,0.00,,,0.09,,2013-04-30 07:42:00,
2013-04-30 03:52:00,48.0,48.0,30.07,ESE,114,4.0,12.0,100,0.00,,,0.09,,2013-04-30 07:52:00,
2013-04-30 04:02:00,48.0,48.0,30.07,ESE,114,4.0,12.0,100,0.00,,,0.09,,2013-04-30 08:02:00,
2013-04-30 04:11:00,48.0,48.0,30.07,ESE,114,4.0,12.0,100,0.00,,,0.09,,2013-04-30 08:11:00,
2013-04-30 04:32:00,48.0,48.0,30.09,East,97,5.0,9.0,100,0.00,,,0.09,,2013-04-30 08:32:00,
2013-04-30 04:42:00,48.0,48.0,30.09,East,97,5.0,9.0,100,0.00,,,0.09,,2013-04-30 08:42:00,
2013-04-30 04:52:00,48.0,48.0,30.09,East,97,5.0,9.0,100,0.00,,,0.09,,2013-04-30 08:52:00,
2013-04-30 05:02:00,48.0,48.0,30.09,East,82,5.0,11.0,100,0.00,,,0.09,,2013-04-30 09:02:00,
2013-04-30 05:11:00,48.0,48.0,30.09,East,82,5.0,11.0,100,0.00,,,0.09,,2013-04-30 09:11:00,
2013-04-30 05:22:00,48.0,48.0,30.09,East,82,5.0,11.0,100,0.00,,,0.09,,2013-04-30 09:22:00,
2013-04-30 05:33:00,48.0,48.0,30.09,ESE,109,4.0,12.0,100,0.00,,,0.09,,2013-04-30 09:33:00,
2013-04-30 05:43:00,48.0,48.0,30.09,ESE,109,4.0,12.0,100,0.00,,,0.09,,2013-04-30 09:43:00,
2013-04-30 05:52:00,48.0,48.0,30.10,SE,126,2.0,9.0,100,0.00,,,0.09,,2013-04-30 09:52:00,
2013-04-30 06:03:00,48.0,48.0,30.10,East,94,7.0,9.0,100,0.00,,,0.09,,2013-04-30 10:03:00,
2013-04-30 06:12:00,48.0,48.0,30.10,East,94,7.0,9.0,100,0.00,,,0.09,,2013-04-30 10:12:00,
2013-04-30 06:22:00,48.0,48.0,30.11,SE,127,6.0,14.0,99,0.00,,,0.09,,2013-04-30 10:22:00,
2013-04-30 06:32:00,48.0,48.0,30.11,East,91,7.0,10.0,99,0.00,,,0.09,,2013-04-30 10:32:00,
2013-04-30 06:41:00,48.0,48.0,30.11,East,91,7.0,10.0,99,0.00,,,0.09,,2013-04-30 10:41:00,
2013-04-30 06:52:00,48.0,48.0,30.12,SE,146,4.0,11.0,99,0.00,,,0.09,,2013-04-30 10:52:00,
2013-04-30 07:02:00,48.0,48.0,30.12,SE,146,4.0,11.0,99,0.00,,,0.09,,2013-04-30 11:02:00,
2013-04-30 07:11:00,48.0,48.0,30.12,SE,146,4.0,11.0,99,0.00,,,0.09,,2013-04-30 11:11:00,
2013-04-30 07:21:00,48.0,48.0,30.12,ESE,106,2.0,10.0,99,0.00,,,0.09,,2013-04-30 11:21:00,
2013-04-30 07:32:00,48.0,48.0,30.14,ESE,119,4.0,13.0,99,0.00,,,0.09,,2013-04-30 11:32:00,
2013-04-30 07:42:00,48.0,48.0,30.14,ESE,119,4.0,13.0,99,0.00,,,0.09,,2013-04-30 11:42:00,
2013-04-30 07:51:00,48.0,48.0,30.14,ESE,119,4.0,13.0,99,0.00,,,0.09,,2013-04-30 11:51:00,
2013-04-30 08:01:00,48.0,48.0,30.14,East,83,5.0,12.0,99,0.00,,,0.09,,2013-04-30 12:01:00,
2013-04-30 08:11:00,48.0,48.0,30.14,East,83,5.0,12.0,99,0.00,,,0.09,,2013-04-30 12:11:00,
2013-04-30 08:22:00,48.0,48.0,30.14,ESE,119,3.0,12.0,99,0.00,,,0.09,,2013-04-30 12:22:00,
2013-04-30 08:31:00,48.0,48.0,30.15,East,93,6.0,10.0,99,0.00,,,0.09,,2013-04-30 12:31:00,
2013-04-30 08:41:00,48.0,48.0,30.15,East,93,6.0,10.0,99,0.00,,,0.09,,2013-04-30 12:41:00,
2013-04-30 08:51:00,49.0,49.0,30.16,East,94,10.0,11.0,99,0.00,,,0.09,,2013-04-30 12:51:00,
2013-04-30 09:01:00,49.0,48.0,30.16,ESE,109,7.0,15.0,98,0.00,,,0.09,,2013-04-30 13:01:00,
2013-04-30 09:11:00,49.0,48.0,30.16,ESE,109,7.0,15.0,98,0.00,,,0.09,,2013-04-30 13:11:00,
2013-04-30 09:21:00,49.0,48.0,30.16,ESE,109,7.0,15.0,98,0.00,,,0.09,,2013-04-30 13:21:00,
2013-04-30 09:31:00,51.0,50.0,30.16,East,92,10.0,16.0,95,0.00,,,0.09,,2013-04-30 13:31:00,
2013-04-30 09:41:00,51.0,50.0,30.16,East,92,10.0,16.0,95,0.00,,,0.09,,2013-04-30 13:41:00,
2013-04-30 09:52:00,50.0,49.0,30.16,East,101,18.0,20.0,95,0.00,,,0.09,,2013-04-30 13:52:00,
2013-04-30 10:02:00,50.0,49.0,30.16,East,98,12.0,18.0,96,0.00,,,0.09,,2013-04-30 14:02:00,
2013-04-30 10:11:00,50.0,49.0,30.16,East,98,12.0,18.0,96,0.00,,,0.09,,2013-04-30 14:11:00,
2013-04-30 10:21:00,50.0,49.0,30.16,East,98,12.0,18.0,96,0.00,,,0.09,,2013-04-30 14:21:00,
2013-04-30 10:31:00,50.0,49.0,30.16,East,98,12.0,18.0,96,0.00,,,0.09,,2013-04-30 14:31:00,
2013-04-30 10:41:00,50.0,49.0,30.16,East,98,12.0,18.0,96,0.00,,,0.09,,2013-04-30 14:41:00,
2013-04-30 10:52:00,50.0,49.0,30.16,East,88,11.0,17.0,95,0.00,,,0.08,,2013-04-30 14:52:00,
2013-04-30 11:02:00,51.0,49.0,30.16,SE,126,14.0,16.0,94,0.00,,,0.08,,2013-04-30 15:02:00,
2013-04-30 11:11:00,51.0,49.0,30.16,SE,126,14.0,16.0,94,0.00,,,0.08,,2013-04-30 15:11:00,
2013-04-30 11:21:00,51.0,49.0,30.16,East,95,7.0,16.0,93,0.00,,,0.08,,2013-04-30 15:21:00,
2013-04-30 11:32:00,52.0,50.0,30.17,SSE,148,9.0,20.0,92,0.00,,,0.08,,2013-04-30 15:32:00,
2013-04-30 11:42:00,52.0,50.0,30.17,SSE,148,9.0,20.0,92,0.00,,,0.08,,2013-04-30 15:42:00,
2013-04-30 11:52:00,52.0,50.0,30.17,SSE,148,9.0,20.0,92,0.00,,,0.08,,2013-04-30 15:52:00,
2013-04-30 12:02:00,53.0,50.0,30.16,ESE,111,11.0,18.0,91,0.00,,,0.08,,2013-04-30 16:02:00,
2013-04-30 12:12:00,53.0,50.0,30.16,ESE,111,11.0,18.0,91,0.00,,,0.08,,2013-04-30 16:12:00,
2013-04-30 12:23:00,53.0,50.0,30.16,ESE,111,11.0,18.0,91,0.00,,,0.08,,2013-04-30 16:23:00,
2013-04-30 12:33:00,53.0,50.0,30.16,ESE,111,11.0,18.0,91,0.00,,,0.08,,2013-04-30 16:33:00,
2013-04-30 12:52:00,54.0,51.0,30.16,ESE,112,16.0,16.0,89,0.00,,,0.08,,2013-04-30 16:52:00,
2013-04-30 13:02:00,54.0,51.0,30.16,ESE,115,10.0,16.0,88,0.00,,,0.08,,2013-04-30 17:02:00,
2013-04-30 13:12:00,54.0,51.0,30.16,ESE,115,10.0,16.0,88,0.00,,,0.08,,2013-04-30 17:12:00,
2013-04-30 13:22:00,54.0,51.0,30.16,ESE,115,10.0,16.0,88,0.00,,,0.08,,2013-04-30 17:22:00,
2013-04-30 13:32:00,56.0,52.0,30.17,ENE,71,12.0,17.0,85,0.00,,,0.08,,2013-04-30 17:32:00,
2013-04-30 13:42:00,56.0,52.0,30.17,ENE,71,12.0,17.0,85,0.00,,,0.08,,2013-04-30 17:42:00,
2013-04-30 13:53:00,56.0,52.0,30.17,ENE,71,12.0,17.0,85,0.00,,,0.08,,2013-04-30 17:53:00,
2013-04-30 14:01:00,56.0,52.0,30.17,ENE,71,12.0,17.0,85,0.00,,,0.08,,2013-04-30 18:01:00,
2013-04-30 14:11:00,56.0,52.0,30.17,ENE,71,12.0,17.0,85,0.00,,,0.08,,2013-04-30 18:11:00,
2013-04-30 14:22:00,56.0,52.0,30.16,East,80,7.0,16.0,85,0.00,,,0.08,,2013-04-30 18:22:00,
2013-04-30 14:32:00,56.0,52.0,30.18,ESE,113,10.0,14.0,85,0.00,,,0.08,,2013-04-30 18:32:00,
2013-04-30 14:42:00,56.0,52.0,30.18,ESE,113,10.0,14.0,85,0.00,,,0.08,,2013-04-30 18:42:00,
2013-04-30 14:52:00,56.0,52.0,30.18,ESE,113,10.0,14.0,85,0.00,,,0.08,,2013-04-30 18:52:00,
2013-04-30 15:01:00,56.0,52.0,30.18,ESE,113,10.0,14.0,85,0.00,,,0.08,,2013-04-30 19:01:00,
2013-04-30 15:11:00,56.0,52.0,30.18,ESE,113,10.0,14.0,85,0.00,,,0.08,,2013-04-30 19:11:00,
2013-04-30 15:32:00,57.0,52.0,30.18,SE,135,6.0,13.0,83,0.00,,,0.08,,2013-04-30 19:32:00,
2013-04-30 15:42:00,57.0,52.0,30.18,SE,135,6.0,13.0,83,0.00,,,0.08,,2013-04-30 19:42:00,
2013-04-30 15:52:00,57.0,52.0,30.18,ENE,75,2.0,15.0,83,0.00,,,0.08,,2013-04-30 19:52:00,
2013-04-30 16:02:00,59.0,52.0,30.17,East,97,11.0,15.0,79,0.00,,,0.08,,2013-04-30 20:02:00,
2013-04-30 16:11:00,59.0,52.0,30.17,East,97,11.0,15.0,79,0.00,,,0.08,,2013-04-30 20:11:00,
2013-04-30 16:22:00,59.0,53.0,30.17,SE,134,5.0,15.0,80,0.00,,,0.08,,2013-04-30 20:22:00,
2013-04-30 16:32:00,59.0,53.0,30.17,East,86,9.0,16.0,80,0.00,,,0.08,,2013-04-30 20:32:00,
2013-04-30 16:42:00,59.0,53.0,30.17,East,86,9.0,16.0,80,0.00,,,0.08,,2013-04-30 20:42:00,
2013-04-30 16:52:00,59.0,53.0,30.17,East,86,9.0,16.0,80,0.00,,,0.08,,2013-04-30 20:52:00,
2013-04-30 17:02:00,59.0,53.0,30.17,SE,127,7.0,18.0,80,0.00,,,0.08,,2013-04-30 21:02:00,
2013-04-30 17:11:00,59.0,53.0,30.17,SE,127,7.0,18.0,80,0.00,,,0.08,,2013-04-30 21:11:00,
2013-04-30 17:22:00,59.0,52.0,30.17,ESE,105,15.0,20.0,78,0.00,,,0.08,,2013-04-30 21:22:00,
2013-04-30 17:32:00,59.0,52.0,30.17,SE,137,12.0,20.0,79,0.00,,,0.08,,2013-04-30 21:32:00,
2013-04-30 17:42:00,59.0,52.0,30.17,SE,137,12.0,20.0,79,0.00,,,0.08,,2013-04-30 21:42:00,
2013-04-30 17:52:00,59.0,52.0,30.17,SE,137,12.0,20.0,79,0.00,,,0.08,,2013-04-30 21:52:00,
2013-04-30 18:02:00,58.0,52.0,30.18,East,80,11.0,22.0,81,0.00,,,0.08,,2013-04-30 22:02:00,
2013-04-30 18:12:00,58.0,52.0,30.18,East,80,11.0,22.0,81,0.00,,,0.08,,2013-04-30 22:12:00,
2013-04-30 18:23:00,57.0,51.0,30.18,SE,133,6.0,18.0,81,0.00,,,0.08,,2013-04-30 22:23:00,
2013-04-30 18:33:00,56.0,51.0,30.17,ESE,115,15.0,21.0,84,0.00,,,0.08,,2013-04-30 22:33:00,
2013-04-30 18:42:00,56.0,51.0,30.17,ESE,115,15.0,21.0,84,0.00,,,0.08,,2013-04-30 22:42:00,
2013-04-30 18:52:00,56.0,51.0,30.17,ESE,115,15.0,21.0,84,0.00,,,0.08,,2013-04-30 22:52:00,
2013-04-30 19:02:00,56.0,51.0,30.17,ESE,115,15.0,21.0,84,0.00,,,0.08,,2013-04-30 23:02:00,
2013-04-30 19:12:00,56.0,51.0,30.17,ESE,115,15.0,21.0,84,0.00,,,0.08,,2013-04-30 23:12:00,
2013-04-30 19:22:00,55.0,51.0,30.18,ESE,102,15.0,21.0,85,0.00,,,0.08,,2013-04-30 23:22:00,
2013-04-30 19:32:00,55.0,51.0,30.18,ENE,77,16.0,16.0,86,0.00,,,0.08,,2013-04-30 23:32:00,
2013-04-30 19:42:00,55.0,51.0,30.18,ENE,77,16.0,16.0,86,0.00,,,0.08,,2013-04-30 23:42:00,
2013-04-30 19:52:00,55.0,51.0,30.18,ENE,77,16.0,16.0,86,0.00,,,0.08,,2013-04-30 23:52:00,
2013-04-30 20:02:00,54.0,51.0,30.19,East,86,10.0,18.0,88,0.00,,,0.07,,2013-05-01 00:02:00,
2013-04-30 20:11:00,54.0,51.0,30.19,East,86,10.0,18.0,88,0.00,,,0.07,,2013-05-01 00:11:00,
2013-04-30 20:22:00,54.0,51.0,30.20,East,92,14.0,17.0,89,0.00,,,0.06,,2013-05-01 00:22:00,
2013-04-30 20:32:00,53.0,50.0,30.20,ESE,108,11.0,21.0,91,0.00,,,0.02,,2013-05-01 00:32:00,
2013-04-30 20:42:00,53.0,50.0,30.20,ESE,108,11.0,21.0,91,0.00,,,0.02,,2013-05-01 00:42:00,
2013-04-30 20:51:00,53.0,50.0,30.20,ESE,108,11.0,21.0,91,0.00,,,0.02,,2013-05-01 00:51:00,
2013-04-30 21:01:00,53.0,51.0,30.21,East,90,6.0,19.0,93,0.00,,,0.00,,2013-05-01 01:01:00,
2013-04-30 21:11:00,53.0,51.0,30.21,East,90,6.0,19.0,93,0.00,,,0.00,,2013-05-01 01:11:00,
2013-04-30 21:21:00,52.0,50.0,30.22,ESE,116,8.0,15.0,93,0.00,,,0.00,,2013-05-01 01:21:00,
2013-04-30 21:32:00,52.0,51.0,30.22,ESE,103,9.0,18.0,95,0.00,,,0.00,,2013-05-01 01:32:00,
2013-04-30 21:42:00,52.0,51.0,30.22,ESE,103,9.0,18.0,95,0.00,,,0.00,,2013-05-01 01:42:00,
2013-04-30 21:52:00,52.0,51.0,30.22,ESE,112,5.0,21.0,96,0.00,,,0.00,,2013-05-01 01:52:00,
2013-04-30 22:02:00,51.0,50.0,30.22,ESE,108,7.0,15.0,96,0.00,,,0.00,,2013-05-01 02:02:00,
2013-04-30 22:11:00,51.0,50.0,30.22,ESE,108,7.0,15.0,96,0.00,,,0.00,,2013-05-01 02:11:00,
2013-04-30 22:21:00,51.0,50.0,30.23,SE,126,6.0,20.0,96,0.00,,,0.00,,2013-05-01 02:21:00,
2013-04-30 22:32:00,51.0,50.0,30.23,ENE,76,13.0,17.0,96,0.00,,,0.00,,2013-05-01 02:32:00,
2013-04-30 22:42:00,51.0,50.0,30.23,ENE,76,13.0,17.0,96,0.00,,,0.00,,2013-05-01 02:42:00,
2013-04-30 22:52:00,52.0,51.0,30.24,NE,45,6.0,17.0,96,0.00,,,0.00,,2013-05-01 02:52:00,
2013-04-30 23:02:00,52.0,51.0,30.24,ESE,102,10.0,17.0,95,0.00,,,0.00,,2013-05-01 03:02:00,
2013-04-30 23:11:00,52.0,51.0,30.24,ESE,102,10.0,17.0,95,0.00,,,0.00,,2013-05-01 03:11:00,
2013-04-30 23:22:00,52.0,51.0,30.24,ESE,102,10.0,17.0,95,0.00,,,0.00,,2013-05-01 03:22:00,
2013-04-30 23:33:00,52.0,51.0,30.24,ESE,102,10.0,17.0,95,0.00,,,0.00,,2013-05-01 03:33:00,
2013-04-30 23:53:00,51.0,49.0,30.24,East,94,6.0,17.0,94,0.00,,,0.00,,2013-05-01 03:53:00,